GW5846 Weather Reports


time (UTC)temp
F
wind
direction
speed
knots
gust
knots
rain 1hr
in
rain 24hr
in
rain mn
in
humidity
%
barometer
mb
20260510015905 60 288 1.7 1.7 0.00 0.00 0.00 68 1009.0
20260510015401 60 288 0.9 0.9 0.00 0.00 0.00 68 1008.8
20260510014857 60 304 0.9 0.9 0.00 0.00 0.00 68 1008.6
20260510014354 60 327 0.0 0.0 0.00 0.00 0.00 68 1008.7
20260510013850 60 310 0.0 0.0 0.00 0.00 0.00 67 1008.5
20260510013346 60 315 0.9 1.7 0.00 0.00 0.00 66 1008.5
20260510012841 60 305 0.9 0.9 0.00 0.00 0.00 68 1008.5
20260510012341 60 311 0.0 0.9 0.00 0.00 0.00 69 1008.2
20260510011836 60 346 0.0 0.9 0.00 0.00 0.00 69 1008.2
20260510011331 61 312 0.0 0.9 0.00 0.00 0.00 68 1007.9
20260510010828 62 304 0.9 0.9 0.00 0.00 0.00 66 1008.1
20260510010326 62 316 0.0 0.0 0.00 0.00 0.00 65 1008.0
20260510005822 63 345 0.0 0.9 0.00 0.00 0.00 64 1007.9
20260510005319 63 304 0.9 1.7 0.00 0.00 0.00 62 1008.0
20260510004816 64 293 0.0 1.7 0.00 0.00 0.00 60 1007.9
20260510004314 64 289 0.9 1.7 0.00 0.00 0.00 62 1007.7
20260510003811 65 357 0.9 0.9 0.00 0.00 0.00 61 1007.5
20260510003308 65 318 0.9 0.9 0.00 0.00 0.00 59 1007.4
20260510002806 66 294 0.9 1.7 0.00 0.00 0.00 58 1007.4
20260510002306 66 302 0.0 0.9 0.00 0.00 0.00 57 1007.1
20260510001800 67 296 1.7 2.6 0.00 0.00 0.00 56 1007.1
20260510001259 67 287 1.7 2.6 0.00 0.00 0.00 55 1007.2
20260510000754 67 296 0.9 1.7 0.00 0.00 0.00 55 1007.0
20260510000252 67 285 0.0 0.9 0.00 0.00 0.00 57 1006.9
20260509235749 68 318 0.0 0.0 0.00 0.00 0.00 55 1007.1
20260509235245 68 307 0.9 3.5 0.00 0.00 0.00 54 1007.0
20260509234741 69 315 1.7 1.7 0.00 0.00 0.00 54 1006.9
20260509234238 69 252 0.0 1.7 0.00 0.00 0.00 53 1006.9
20260509233737 69 253 2.6 2.6 0.00 0.00 0.00 53 1006.8
20260509233234 69 295 0.0 2.6 0.00 0.00 0.00 53 1006.8
20260509232729 69 283 0.9 2.6 0.00 0.00 0.00 52 1007.0
20260509232227 69 279 1.7 3.5 0.00 0.00 0.00 52 1007.0
20260509231723 69 288 1.7 2.6 0.00 0.00 0.00 53 1006.9
20260509231220 69 293 1.7 3.5 0.00 0.00 0.00 52 1006.8
20260509230718 69 311 2.6 3.5 0.00 0.00 0.00 51 1006.9
20260509230214 70 338 1.7 3.5 0.00 0.00 0.00 51 1006.8
20260509225710 70 163 1.7 3.5 0.00 0.00 0.00 50 1006.7
20260509225207 70 256 0.9 2.6 0.00 0.00 0.00 51 1006.6
20260509224702 70 229 1.7 6.1 0.00 0.00 0.00 51 1006.9
20260509224159 70 263 0.9 2.6 0.00 0.00 0.00 51 1006.8
20260509223656 70 261 1.7 2.6 0.00 0.00 0.00 50 1006.7
20260509223153 70 244 3.5 7.0 0.00 0.00 0.00 50 1006.9
20260509222650 70 203 1.7 2.6 0.00 0.00 0.00 50 1006.7
20260509222145 70 198 1.7 3.5 0.00 0.00 0.00 50 1006.8
20260509221641 71 309 2.6 3.5 0.00 0.00 0.00 50 1006.8
20260509221137 71 331 1.7 5.2 0.00 0.00 0.00 49 1006.9
20260509220634 71 320 0.9 3.5 0.00 0.00 0.00 48 1006.7
20260509220130 71 157 2.6 6.1 0.00 0.00 0.00 47 1006.6
20260509215626 72 134 1.7 7.8 0.00 0.00 0.00 47 1006.6
20260509215123 73 268 1.7 3.5 0.00 0.00 0.00 47 1006.5
20260509214620 74 320 1.7 3.5 0.00 0.00 0.00 46 1006.6
20260509214117 73 296 1.7 3.5 0.00 0.00 0.00 46 1006.8
20260509213613 73 177 1.7 5.2 0.00 0.00 0.00 46 1006.8
20260509213109 72 231 1.7 6.1 0.00 0.00 0.00 47 1006.6
20260509212607 72 213 5.2 7.0 0.00 0.00 0.00 46 1006.7
20260509212104 73 262 3.5 6.1 0.00 0.00 0.00 44 1006.6
20260509211559 75 228 2.6 7.0 0.00 0.00 0.00 42 1006.4
20260509211056 74 297 1.7 6.1 0.00 0.00 0.00 43 1006.3
20260509210553 73 300 5.2 7.0 0.00 0.00 0.00 43 1006.3
20260509210051 71 306 0.9 3.5 0.00 0.00 0.00 46 1006.3
20260509205549 71 282 3.5 6.1 0.00 0.00 0.00 44 1006.5
20260509205045 71 212 1.7 5.2 0.00 0.00 0.00 45 1006.4
20260509204542 71 292 1.7 6.1 0.00 0.00 0.00 44 1006.3
20260509204038 72 272 3.5 7.8 0.00 0.00 0.00 43 1006.1
20260509203534 74 307 3.5 7.0 0.00 0.00 0.00 41 1006.0
20260509203033 75 255 3.5 7.0 0.00 0.00 0.00 42 1005.9
20260509202533 75 220 4.3 7.8 0.00 0.00 0.00 44 1005.9
20260509202028 74 136 1.7 6.1 0.00 0.00 0.00 44 1006.0
20260509201524 74 290 1.7 7.0 0.00 0.00 0.00 44 1006.0
20260509201022 72 203 5.2 7.8 0.00 0.00 0.00 44 1006.0
20260509200521 73 153 3.5 7.8 0.00 0.00 0.00 44 1006.1
20260509200018 73 285 6.1 7.8 0.00 0.00 0.00 45 1006.1
20260509195514 74 225 5.2 7.0 0.00 0.00 0.00 44 1006.4
20260509195013 73 278 7.0 8.7 0.00 0.00 0.00 43 1006.4
20260509194509 73 288 1.7 7.0 0.00 0.00 0.00 44 1006.4
20260509194007 73 238 1.7 3.5 0.00 0.00 0.00 43 1006.5
20260509193506 73 199 3.5 7.8 0.00 0.00 0.00 45 1006.7
20260509193003 73 187 3.5 7.0 0.00 0.00 0.00 47 1006.5
20260509192459 72 293 0.9 3.5 0.00 0.00 0.00 45 1006.6
20260509191954 73 211 1.7 2.6 0.00 0.00 0.00 47 1006.7
20260509191450 73 317 2.6 6.1 0.00 0.00 0.00 45 1006.8
20260509190946 73 285 3.5 6.1 0.00 0.00 0.00 45 1006.9
20260509190443 72 164 1.7 7.8 0.00 0.00 0.00 45 1007.1
20260509185941 73 302 4.3 7.8 0.00 0.00 0.00 44 1007.0
20260509185438 72 210 1.7 7.0 0.00 0.00 0.00 43 1006.9
20260509184934 72 223 5.2 7.0 0.00 0.00 0.00 44 1007.0
20260509184432 73 172 4.3 7.0 0.00 0.00 0.00 44 1007.2
20260509183928 72 306 4.3 8.7 0.00 0.00 0.00 44 1007.2
20260509183423 71 197 7.0 7.8 0.00 0.00 0.00 44 1007.3
20260509182920 70 219 4.3 8.7 0.00 0.00 0.00 47 1007.2
20260509182416 71 152 2.6 5.2 0.00 0.00 0.00 47 1007.3
20260509181914 72 222 2.6 8.7 0.00 0.00 0.00 50 1007.4
20260509181411 71 197 1.7 2.6 0.00 0.00 0.00 52 1007.3
20260509180908 69 151 0.9 2.6 0.00 0.00 0.00 55 1007.5
20260509180404 69 320 1.7 3.5 0.00 0.00 0.00 51 1007.5
20260509175901 69 202 0.9 5.2 0.00 0.00 0.00 53 1007.6
20260509175357 68 163 4.3 7.0 0.00 0.00 0.00 51 1007.7
20260509174853 68 183 1.7 5.2 0.00 0.00 0.00 53 1007.8
20260509174350 68 197 1.7 2.6 0.00 0.00 0.00 53 1007.8
20260509173845 68 271 0.9 2.6 0.00 0.00 0.00 54 1008.1
20260509173341 68 222 1.7 7.0 0.00 0.00 0.00 52 1008.1
20260509172837 68 317 0.0 7.0 0.00 0.00 0.00 52 1008.1
20260509172334 68 180 5.2 7.0 0.00 0.00 0.00 51 1008.3
20260509171830 68 184 2.6 3.5 0.00 0.00 0.00 52 1008.2
20260509171326 67 224 0.9 2.6 0.00 0.00 0.00 53 1008.3
20260509170822 68 199 1.7 6.1 0.00 0.00 0.00 53 1008.2
20260509170318 67 65 1.7 6.1 0.00 0.00 0.00 52 1008.2
20260509165818 68 263 0.9 7.0 0.00 0.00 0.00 51 1008.4
20260509165313 67 156 3.5 3.5 0.00 0.00 0.00 50 1008.3
20260509164809 68 235 4.3 7.8 0.00 0.00 0.00 51 1008.3
20260509164305 68 281 2.6 5.2 0.00 0.00 0.00 52 1008.2
20260509163802 68 301 4.3 6.1 0.00 0.00 0.00 52 1008.3
20260509163258 69 154 1.7 5.2 0.00 0.00 0.00 53 1008.2
20260509162757 69 191 1.7 7.0 0.00 0.00 0.00 50 1008.3
20260509162251 69 187 3.5 7.0 0.00 0.00 0.00 48 1008.3
20260509161747 68 292 0.9 6.1 0.00 0.00 0.00 51 1008.2
20260509161243 68 246 1.7 5.2 0.00 0.00 0.00 53 1008.2
20260509160738 67 203 1.7 5.2 0.00 0.00 0.00 54 1008.4
20260509160235 66 225 3.5 5.2 0.00 0.00 0.00 55 1008.3
20260509155730 66 181 4.3 7.0 0.00 0.00 0.00 54 1008.3
20260509155227 65 174 2.6 6.1 0.00 0.00 0.00 55 1008.4
20260509154723 65 295 2.6 6.1 0.00 0.00 0.00 58 1008.2
20260509154220 65 238 1.7 5.2 0.00 0.00 0.00 57 1008.5
20260509153718 65 165 2.6 7.0 0.00 0.00 0.00 58 1008.4
20260509153214 66 213 1.7 6.1 0.00 0.00 0.00 56 1008.4
20260509152710 66 280 4.3 7.0 0.00 0.00 0.00 54 1008.4
20260509152207 66 114 4.3 7.8 0.00 0.00 0.00 54 1008.3
20260509151704 67 256 3.5 7.0 0.00 0.00 0.00 53 1008.3
20260509151201 68 295 1.7 3.5 0.00 0.00 0.00 54 1008.4
20260509150658 66 322 0.9 1.7 0.00 0.00 0.00 55 1008.1
20260509150157 65 300 3.5 3.5 0.00 0.00 0.00 55 1008.3
20260509145652 65 297 1.7 5.2 0.00 0.00 0.00 55 1008.0
20260509145148 65 282 0.9 3.5 0.00 0.00 0.00 58 1008.4
20260509144644 66 265 3.5 6.1 0.00 0.00 0.00 57 1008.5
20260509144142 66 279 2.6 5.2 0.00 0.00 0.00 57 1008.2
20260509143639 66 200 0.9 2.6 0.00 0.00 0.00 58 1008.3
20260509143136 66 197 2.6 3.5 0.00 0.00 0.00 59 1008.3
20260509142631 66 216 4.3 6.1 0.00 0.00 0.00 56 1008.2
20260509142128 66 65 0.9 0.9 0.00 0.00 0.00 55 1008.3
20260509141624 64 219 0.9 1.7 0.00 0.00 0.00 61 1008.3
20260509141121 64 227 2.6 3.5 0.00 0.00 0.00 58 1008.7
20260509140618 63 143 0.9 2.6 0.00 0.00 0.00 62 1008.7
20260509140116 63 231 0.9 5.2 0.00 0.00 0.00 62 1008.6
20260509135612 63 185 0.9 2.6 0.00 0.00 0.00 60 1009.2
20260509135111 62 188 1.7 2.6 0.00 0.00 0.00 63 1009.0
20260509134607 62 202 1.7 3.5 0.00 0.00 0.00 63 1009.2
20260509134104 61 286 0.0 1.7 0.00 0.00 0.00 62 1009.4
20260509133601 60 282 0.9 2.6 0.00 0.00 0.00 64 1009.5
20260509133059 60 230 0.0 3.5 0.00 0.00 0.00 63 1009.5
20260509132557 59 180 0.0 2.6 0.00 0.00 0.00 64 1009.6
20260509132055 59 198 1.7 5.2 0.00 0.00 0.00 63 1009.5
20260509131550 59 170 0.9 1.7 0.00 0.00 0.00 65 1009.5
20260509131048 58 223 1.7 1.7 0.00 0.00 0.00 63 1009.5
20260509130543 58 272 1.7 1.7 0.00 0.00 0.00 64 1009.4
20260509130040 58 243 0.0 2.6 0.00 0.00 0.00 64 1009.5
20260509125536 57 239 0.9 1.7 0.00 0.00 0.00 65 1009.4
20260509125033 57 165 2.6 3.5 0.00 0.00 0.00 65 1009.5
20260509124530 57 192 1.7 3.5 0.00 0.00 0.00 64 1009.5
20260509124027 57 188 0.9 1.7 0.00 0.00 0.00 65 1009.4
20260509123525 57 166 0.9 1.7 0.00 0.00 0.00 65 1009.2
20260509123021 57 175 0.0 0.9 0.00 0.00 0.00 66 1009.2
20260509122518 57 198 0.9 1.7 0.00 0.00 0.00 65 1009.3
20260509122015 57 213 0.0 1.7 0.00 0.00 0.00 66 1009.4
20260509121511 57 197 0.0 0.9 0.00 0.00 0.00 64 1009.5
20260509121009 57 150 0.9 0.9 0.00 0.00 0.00 65 1009.6
20260509120507 56 148 0.0 0.9 0.00 0.00 0.00 65 1009.5
20260509120005 56 112 0.0 0.0 0.00 0.00 0.00 64 1009.6
20260509115502 56 128 0.0 0.9 0.00 0.00 0.00 65 1009.5
20260509114959 55 98 0.0 0.9 0.00 0.00 0.00 64 1009.6
20260509114457 55 103 0.0 0.0 0.00 0.00 0.00 64 1009.3
20260509113956 55 104 0.0 0.9 0.00 0.00 0.00 64 1009.3
20260509113453 55 203 0.9 0.9 0.00 0.00 0.00 63 1009.5
20260509112950 55 95 0.0 0.9 0.00 0.00 0.00 62 1009.5
20260509112448 55 87 0.0 0.0 0.00 0.00 0.00 62 1009.5
20260509111944 55 211 0.9 1.7 0.00 0.00 0.00 61 1009.4
20260509111442 54 123 0.0 0.9 0.00 0.00 0.00 62 1009.6
20260509110939 54 222 0.0 0.0 0.00 0.00 0.00 61 1009.5
20260509110435 54 195 0.0 0.0 0.00 0.00 0.00 61 1009.3
20260509105933 53 195 0.0 0.0 0.00 0.00 0.00 62 1009.4
20260509105432 53 195 0.0 0.0 0.00 0.00 0.00 62 1009.3
20260509104928 53 233 0.0 0.0 0.00 0.00 0.00 62 1009.4
20260509104425 52 233 0.0 0.0 0.00 0.00 0.00 62 1009.4
20260509103922 52 233 0.0 0.0 0.00 0.00 0.00 62 1009.4
20260509103419 52 233 0.0 0.0 0.00 0.00 0.00 62 1009.4
20260509102918 52 233 0.0 0.0 0.00 0.00 0.00 63 1009.5
20260509102415 52 233 0.0 0.0 0.00 0.00 0.00 64 1009.5
20260509101910 52 233 0.0 0.0 0.00 0.00 0.00 64 1009.4
20260509101407 52 233 0.0 0.0 0.00 0.00 0.00 64 1009.4
20260509100905 52 233 0.0 0.0 0.00 0.00 0.00 62 1009.5
20260509100402 52 233 0.0 0.0 0.00 0.00 0.00 62 1009.6
20260509095858 52 233 0.0 0.0 0.00 0.00 0.00 62 1009.3
20260509095356 52 233 0.0 0.9 0.00 0.00 0.00 60 1009.4
20260509094853 53 186 0.0 0.0 0.00 0.00 0.00 60 1009.6
20260509094349 53 186 0.0 0.0 0.00 0.00 0.00 59 1009.5
20260509093847 52 186 0.0 0.0 0.00 0.00 0.00 59 1009.5
20260509093344 52 186 0.0 0.0 0.00 0.00 0.00 60 1009.5
20260509092843 51 186 0.0 0.0 0.00 0.00 0.00 61 1009.7
20260509092340 52 186 0.0 0.0 0.00 0.00 0.00 60 1009.6
20260509091838 53 186 0.0 0.0 0.00 0.00 0.00 58 1009.5
20260509091334 52 186 0.0 0.0 0.00 0.00 0.00 58 1009.9
20260509090832 51 186 0.0 0.0 0.00 0.00 0.00 59 1009.9
20260509090329 52 186 0.0 0.0 0.00 0.00 0.00 58 1009.5
20260509085826 52 186 0.0 0.0 0.00 0.00 0.00 58 1009.6
20260509085324 53 186 0.0 0.0 0.00 0.00 0.00 59 1009.8
20260509084820 52 186 0.0 0.0 0.00 0.00 0.00 60 1009.7
20260509084317 52 186 0.0 0.0 0.00 0.00 0.00 60 1009.7
20260509083815 52 186 0.0 0.0 0.00 0.00 0.00 60 1009.8
20260509083311 53 186 0.0 0.0 0.00 0.00 0.00 59 1009.6
20260509082808 53 186 0.0 0.0 0.00 0.00 0.00 59 1009.9
20260509082306 53 186 0.0 0.0 0.00 0.00 0.00 59 1009.8
20260509081801 53 186 0.0 0.0 0.00 0.00 0.00 58 1009.7
20260509081259 54 186 0.0 0.0 0.00 0.00 0.00 57 1009.9
20260509080757 54 186 0.0 0.0 0.00 0.00 0.00 57 1009.8
20260509080254 55 186 0.0 0.0 0.00 0.00 0.00 55 1010.0
20260509075752 55 186 0.0 0.9 0.00 0.00 0.00 54 1010.0
20260509075249 55 196 0.9 0.9 0.00 0.00 0.00 54 1009.9
20260509074746 55 186 0.9 0.9 0.00 0.00 0.00 53 1009.9
20260509074244 56 243 0.9 1.7 0.00 0.00 0.00 52 1010.0
20260509073740 56 240 2.6 3.5 0.00 0.00 0.00 52 1010.2
20260509073237 55 200 0.0 2.6 0.00 0.00 0.00 52 1010.3
20260509072733 55 224 0.9 2.6 0.00 0.00 0.00 53 1010.2
20260509072230 54 131 0.0 0.0 0.00 0.00 0.00 55 1010.5
20260509071727 54 207 0.0 0.0 0.00 0.00 0.00 56 1010.3
20260509071224 54 206 0.0 0.0 0.00 0.00 0.00 56 1010.4
20260509070721 54 206 0.0 0.0 0.00 0.00 0.00 57 1010.5
20260509070217 55 206 0.0 0.0 0.00 0.00 0.00 55 1010.4
20260509065713 55 192 0.0 0.0 0.00 0.00 0.00 54 1010.3
20260509065209 56 191 0.0 0.9 0.00 0.00 0.00 52 1010.5
20260509064706 56 289 0.0 0.9 0.00 0.00 0.00 51 1010.5
20260509064204 56 293 0.9 1.7 0.00 0.00 0.00 51 1010.6
20260509063701 57 254 0.0 1.7 0.00 0.00 0.00 51 1010.5
20260509063157 57 311 1.7 6.1 0.00 0.00 0.00 49 1010.4
20260509062655 57 238 1.7 3.5 0.00 0.00 0.00 50 1010.6
20260509062152 56 232 0.9 2.6 0.00 0.00 0.00 51 1010.8
20260509061648 56 312 1.7 1.7 0.00 0.00 0.00 51 1010.7
20260509061146 56 286 0.9 0.9 0.00 0.00 0.00 51 1010.9
20260509060643 56 239 0.9 1.7 0.00 0.00 0.00 52 1010.9
20260509060139 56 182 0.9 0.9 0.00 0.00 0.00 52 1011.0
20260509055635 56 241 0.0 1.7 0.00 0.00 0.00 52 1010.8
20260509055131 55 255 0.0 0.0 0.00 0.00 0.00 53 1010.8
20260509054628 55 245 0.0 0.9 0.00 0.00 0.00 54 1010.9
20260509054126 52 296 0.9 2.6 0.00 0.00 0.00 56 1010.9
20260509053624 52 304 0.0 0.0 0.00 0.00 0.00 58 1010.9
20260509053121 52 317 0.0 0.9 0.00 0.00 0.00 58 1011.1
20260509052619 53 315 0.9 0.9 0.00 0.00 0.00 57 1011.2
20260509052116 53 312 0.0 0.9 0.00 0.00 0.00 57 1010.9
20260509051614 53 304 0.9 0.9 0.00 0.00 0.00 57 1011.3
20260509051111 53 332 0.0 0.9 0.00 0.00 0.00 56 1011.1
20260509050608 52 309 0.0 0.0 0.00 0.00 0.00 58 1011.2
20260509045602 53 303 0.0 0.0 0.00 0.00 0.00 58 1011.0
20260509045058 52 297 0.0 0.0 0.00 0.00 0.00 57 1010.9
20260509044556 53 305 0.0 0.0 0.00 0.00 0.00 58 1010.9
20260509044053 53 300 0.0 0.9 0.00 0.00 0.00 57 1011.1
20260509043549 53 294 0.0 0.0 0.00 0.00 0.00 58 1010.8
20260509043045 53 292 0.0 0.0 0.00 0.00 0.00 58 1011.0
20260509042541 52 346 0.0 0.0 0.00 0.00 0.00 59 1010.9
20260509042037 52 311 0.0 0.0 0.00 0.00 0.00 59 1011.1
20260509041534 53 325 0.0 0.0 0.00 0.00 0.00 58 1011.0
20260509041032 53 324 0.0 0.0 0.00 0.00 0.00 58 1010.8
20260509040530 53 324 0.0 0.0 0.00 0.00 0.00 58 1010.8
20260509040027 54 341 0.0 0.0 0.00 0.00 0.00 57 1010.9
20260509035524 54 291 0.0 0.0 0.00 0.00 0.00 56 1010.8
20260509035020 54 305 0.0 0.0 0.00 0.00 0.00 55 1010.9
20260509034519 55 302 0.0 1.7 0.00 0.00 0.00 56 1010.9
20260509034015 55 281 0.9 1.7 0.00 0.00 0.00 55 1010.8
20260509033512 55 302 0.9 0.9 0.00 0.00 0.00 55 1010.9
20260509033009 55 291 0.9 1.7 0.00 0.00 0.00 54 1010.8
20260509032506 55 301 0.0 0.9 0.00 0.00 0.00 55 1010.8
20260509032003 56 291 0.9 1.7 0.00 0.00 0.00 54 1011.0
20260509031500 56 298 0.0 1.7 0.00 0.00 0.00 53 1010.9
20260509030958 56 253 0.9 1.7 0.00 0.00 0.00 53 1011.0
20260509030456 57 270 0.0 2.6 0.00 0.00 0.00 52 1010.9
20260509025953 57 303 0.9 1.7 0.00 0.00 0.00 52 1011.0
20260509025449 57 209 1.7 3.5 0.00 0.00 0.00 52 1010.9
20260509024944 57 279 1.7 2.6 0.00 0.00 0.00 53 1011.1
20260509024440 57 271 0.9 1.7 0.00 0.00 0.00 53 1011.2
20260509023937 57 319 1.7 1.7 0.00 0.00 0.00 53 1011.2
20260509023435 57 285 0.9 1.7 0.00 0.00 0.00 52 1011.2
20260509022931 57 302 1.7 1.7 0.00 0.00 0.00 52 1011.3
20260509022428 57 304 1.7 2.6 0.00 0.00 0.00 52 1011.3
20260509021926 57 286 1.7 5.2 0.00 0.00 0.00 52 1011.2
20260509021422 58 286 0.9 2.6 0.00 0.00 0.00 52 1011.2
20260509020920 58 295 0.9 2.6 0.00 0.00 0.00 52 1010.9
20260509020418 58 296 1.7 2.6 0.00 0.00 0.00 51 1011.0